IRIDIUM 106 1 41917U 17003A 26159.79303437 .00000045 00000+0 90030-5 0 9997 2 41917 86.3961 92.0651 0001885 81.0899 279.0510 14.34217938492008 IRIDIUM 103 1 41918U 17003B 26159.78034972 .00000060 00000+0 14295-4 0 9997 2 41918 86.3960 91.9702 0002455 80.9725 279.1749 14.34217261492029 IRIDIUM 109 1 41919U 17003C 26159.78669293 .00000050 00000+0 10718-4 0 9993 2 41919 86.3962 92.0270 0002308 84.0241 276.1218 14.34217970491999 IRIDIUM 102 1 41920U 17003D 26159.82474838 .00000104 00000+0 29920-4 0 9994 2 41920 86.3959 91.9348 0002254 86.3050 273.8403 14.34217758492089 IRIDIUM 105 1 41921U 17003E 26159.78334954 .00000297 00000+0 98957-4 0 9993 2 41921 86.3971 60.3835 0002538 86.5724 273.5762 14.34221576493933 IRIDIUM 104 1 41922U 17003F 26159.76766517 .00000064 00000+0 15869-4 0 9999 2 41922 86.3962 92.0011 0002501 83.2676 276.8804 14.34218097492062 IRIDIUM 114 1 41923U 17003G 26159.77400789 .00000046 00000+0 94689-5 0 9995 2 41923 86.3960 91.9816 0002399 83.3247 276.8222 14.34217874492046 IRIDIUM 108 1 41924U 17003H 26159.80229727 -.00000022 00000+0 -15038-4 0 9997 2 41924 86.3966 60.2660 0002098 87.7824 272.3612 14.34217046493905 IRIDIUM 112 1 41925U 17003J 26159.76132194 .00000132 00000+0 40022-4 0 9995 2 41925 86.3957 91.8294 0002371 85.4048 274.7418 14.34217449492069 IRIDIUM 111 1 41926U 17003K 26159.81840687 .00000205 00000+0 66048-4 0 9992 2 41926 86.3960 91.8756 0002301 83.9356 276.2102 14.34215929492052 IRIDIUM 113 1 42803U 17039A 26159.51929631 .00000137 00000+0 41913-4 0 9998 2 42803 86.3964 325.8032 0002316 90.0226 270.1235 14.34217921469945 IRIDIUM 123 1 42804U 17039B 26159.83984709 .00000110 00000+0 32143-4 0 9997 2 42804 86.3973 357.1275 0002073 83.8815 276.2617 14.34218419468759 IRIDIUM 120 1 42805U 17039C 26159.51293628 .00000277 00000+0 91858-4 0 9998 2 42805 86.3956 325.5891 0001932 93.3536 266.7881 14.34211016469937 IRIDIUM 115 1 42806U 17039D 26159.52154848 .00000433 00000+0 12280-3 0 9995 2 42806 86.4491 325.7134 0002020 86.2448 273.8984 14.43280369473011 IRIDIUM 118 1 42807U 17039E 26159.80179312 -.00000209 00000+0 -81716-4 0 9994 2 42807 86.3973 357.1417 0002253 87.2073 272.9380 14.34217222468744 IRIDIUM 117 1 42808U 17039F 26159.82082110 .00000016 00000+0 -12790-5 0 9998 2 42808 86.3968 357.0913 0002057 85.6054 274.5376 14.34217531468771 IRIDIUM 126 1 42809U 17039G 26159.77642161 .00000104 00000+0 30060-4 0 9997 2 42809 86.3973 357.1608 0002253 85.3660 274.7793 14.34217828468749 IRIDIUM 124 1 42810U 17039H 26159.80201932 .00000390 00000+0 10982-3 0 9997 2 42810 86.4477 293.8657 0002175 91.6295 268.5155 14.43281529473904 IRIDIUM 128 1 42811U 17039J 26159.13924396 .00000020 00000+0 23058-6 0 9991 2 42811 86.3972 28.9333 0001880 85.4684 274.6727 14.34217633468684 IRIDIUM 121 1 42812U 17039K 26159.79544958 .00000183 00000+0 58460-4 0 9999 2 42812 86.4000 357.1824 0001826 82.5676 277.5727 14.34217243468622 IRIDIUM 133 1 42955U 17061A 26159.86863819 .00000133 00000+0 40262-4 0 9996 2 42955 86.3978 28.7460 0002136 85.4261 274.7179 14.34217036453586 IRIDIUM 100 1 42956U 17061B 26159.72276190 .00000046 00000+0 93937-5 0 9993 2 42956 86.3975 28.7257 0002154 86.2874 273.8568 14.34218054453568 IRIDIUM 122 1 42957U 17061C 26159.13290154 .00000018 00000+0 -66680-6 0 9991 2 42957 86.3975 28.9728 0002213 84.6979 275.4469 14.34217749453487 IRIDIUM 129 1 42958U 17061D 26159.71642029 .00000103 00000+0 29547-4 0 9991 2 42958 86.3976 28.7956 0002422 88.1894 271.9579 14.34217868453583 IRIDIUM 119 1 42959U 17061E 26159.12655944 .00000037 00000+0 62655-5 0 9991 2 42959 86.3978 29.0381 0002263 84.5701 275.5753 14.34217634453510 IRIDIUM 107 1 42960U 17061F 26159.14558586 .00000121 00000+0 36036-4 0 9996 2 42960 86.3979 29.0512 0002066 80.5372 279.6057 14.34217978453524 IRIDIUM 132 1 42961U 17061G 26159.36123435 .00000073 00000+0 19050-4 0 9995 2 42961 86.3978 28.9405 0002239 85.8232 274.3220 14.34218181453552 IRIDIUM 136 1 42962U 17061H 26159.39294573 .00000049 00000+0 10288-4 0 9998 2 42962 86.3977 28.9339 0002193 84.3077 275.8369 14.34216678453579 IRIDIUM 139 1 42963U 17061J 26159.18998459 .00000140 00000+0 43040-4 0 9994 2 42963 86.3979 29.0807 0002082 85.2486 274.8947 14.34217788453557 IRIDIUM 125 1 42964U 17061K 26159.73544834 .00000023 00000+0 11331-5 0 9999 2 42964 86.3979 28.9134 0002451 75.6253 284.5215 14.34217788453640 IRIDIUM 135 1 43070U 17083A 26159.50026792 -.00000006 00000+0 -90655-5 0 9994 2 43070 86.3957 325.6484 0002092 91.5327 268.6108 14.34217589442900 IRIDIUM 138 1 43071U 17083B 26159.52563919 .00000238 00000+0 77792-4 0 9995 2 43071 86.3973 325.3319 0002413 88.6809 271.4663 14.34218187442893 IRIDIUM 116 1 43072U 17083C 26159.49392512 .00000203 00000+0 65289-4 0 9991 2 43072 86.3958 325.6370 0001855 94.1641 265.9767 14.34217695442922 IRIDIUM 130 1 43073U 17083D 26159.74128553 .00000251 00000+0 82589-4 0 9997 2 43073 86.3968 325.8081 0001953 88.0059 272.1360 14.34218525442909 IRIDIUM 151 1 43074U 17083E 26159.50661029 .00000116 00000+0 34186-4 0 9992 2 43074 86.3960 325.6892 0002118 91.7096 268.4342 14.34218002442892 IRIDIUM 134 1 43075U 17083F 26159.75397149 .00000015 00000+0 -17862-5 0 9991 2 43075 86.3956 325.5938 0001997 89.2746 270.8679 14.34217809442890 IRIDIUM 137 1 43076U 17083G 26159.48758227 .00000018 00000+0 -48920-6 0 9993 2 43076 86.3957 325.7977 0001894 103.4756 256.6651 14.34217378442920 IRIDIUM 141 1 43077U 17083H 26159.48124053 -.00000004 00000+0 -85577-5 0 9992 2 43077 86.3955 325.6315 0002117 90.9883 269.1555 14.34217336442920 IRIDIUM 153 1 43078U 17083J 26159.78226190 .00000022 00000+0 82084-6 0 9990 2 43078 86.3953 293.9858 0002235 91.0282 269.1170 14.34217658444072 IRIDIUM 131 1 43079U 17083K 26159.74762909 -.00000026 00000+0 -16190-4 0 9999 2 43079 86.3960 325.7056 0002098 91.8257 268.3179 14.34217338442895 IRIDIUM 144 1 43249U 18030A 26159.78860385 -.00000044 00000+0 -22674-4 0 9996 2 43249 86.3950 293.9126 0001939 95.7812 264.3605 14.34217292428938 IRIDIUM 149 1 43250U 18030B 26159.79494722 .00000050 00000+0 10821-4 0 9993 2 43250 86.3952 293.8769 0002257 93.2398 266.9056 14.34217840428959 IRIDIUM 157 1 43251U 18030C 26159.81397492 .00000045 00000+0 90050-5 0 9990 2 43251 86.3954 293.9217 0002195 94.0523 266.0923 14.34217760428934 IRIDIUM 140 1 43252U 18030D 26159.76323375 .00000042 00000+0 78958-5 0 9994 2 43252 86.3954 293.9556 0002148 92.3114 267.8327 14.34217807428980 IRIDIUM 145 1 43253U 18030E 26159.75054725 .00000181 00000+0 57739-4 0 9991 2 43253 86.3952 293.9331 0001861 97.0171 263.1236 14.34218261428912 IRIDIUM 146 1 43254U 18030F 26159.80128948 .00000032 00000+0 44383-5 0 9994 2 43254 86.3953 293.9241 0002098 95.6449 264.4986 14.34217647428934 IRIDIUM 148 1 43255U 18030G 26159.76957610 .00000001 00000+0 -66105-5 0 9999 2 43255 86.3951 293.9805 0002068 97.2205 262.9225 14.34217436428962 IRIDIUM 142 1 43256U 18030H 26159.80763154 .00000053 00000+0 11845-4 0 9999 2 43256 86.3951 293.8538 0002041 96.3464 263.7964 14.34217829428935 IRIDIUM 150 1 43257U 18030J 26159.77591906 .00000054 00000+0 12387-4 0 9993 2 43257 86.3955 293.9832 0002162 92.1960 267.9484 14.34217902428954 IRIDIUM 143 1 43258U 18030K 26159.75689079 .00000083 00000+0 22519-4 0 9991 2 43258 86.3958 294.0832 0002097 94.3968 265.7468 14.34218152428887 IRIDIUM 161 1 43478U 18047C 26159.77996471 .00000343 00000+0 96054-4 0 9996 2 43478 86.4481 91.9860 0002543 88.0777 272.0715 14.43278524423927 IRIDIUM 152 1 43479U 18047D 26159.79937823 .00000031 00000+0 38436-5 0 9990 2 43479 86.3956 91.8390 0002375 84.6667 275.4800 14.34217817421281 IRIDIUM 147 1 43480U 18047E 26159.80572028 .00000079 00000+0 21152-4 0 9994 2 43480 86.3959 91.8414 0002142 84.9691 275.1749 14.34217809421285 IRIDIUM 110 1 43481U 18047F 26159.81206392 .00000008 00000+0 -43581-5 0 9998 2 43481 86.3959 91.9304 0002466 86.1524 273.9954 14.34217527421273 IRIDIUM 162 1 43482U 18047G 26159.77366744 .00000349 00000+0 97903-4 0 9995 2 43482 86.4478 91.8799 0002340 83.4866 276.6601 14.43277166423915 IRIDIUM 160 1 43569U 18061A 26159.75789883 .00000030 00000+0 37943-5 0 9994 2 43569 86.3967 60.3218 0002277 86.6687 273.4770 14.34217897412167 IRIDIUM 166 1 43570U 18061B 26159.78326931 .00000004 00000+0 -57454-5 0 9991 2 43570 86.3966 60.2614 0002008 84.8251 275.3173 14.34217493412199 IRIDIUM 158 1 43571U 18061C 26159.75155610 .00000121 00000+0 36144-4 0 9994 2 43571 86.3966 60.2849 0002272 82.6918 277.4536 14.34217723412157 IRIDIUM 165 1 43572U 18061D 26159.77692227 .00000188 00000+0 60154-4 0 9998 2 43572 86.3968 60.3203 0002087 85.8344 274.3090 14.34216432412187 IRIDIUM 155 1 43573U 18061E 26159.80863951 .00000018 00000+0 -72056-6 0 9996 2 43573 86.3964 60.1764 0002166 82.8866 277.2576 14.34217737412155 IRIDIUM 154 1 43574U 18061F 26159.78961147 .00000062 00000+0 15213-4 0 9998 2 43574 86.3969 60.3179 0002069 87.1433 272.9999 14.34217888412207 IRIDIUM 163 1 43575U 18061G 26159.77057316 .00000222 00000+0 72166-4 0 9990 2 43575 86.3967 60.2412 0002350 82.9658 277.1805 14.34215693412171 IRIDIUM 156 1 43576U 18061H 26159.81497919 .00000234 00000+0 76385-4 0 9993 2 43576 86.3965 60.2300 0002112 80.8687 279.2748 14.34219801412175 IRIDIUM 164 1 43577U 18061J 26159.79595381 .00000122 00000+0 36623-4 0 9990 2 43577 86.3967 60.2782 0002072 88.2199 271.9234 14.34217593412217 IRIDIUM 159 1 43578U 18061K 26159.76424016 .00000235 00000+0 76883-4 0 9991 2 43578 86.3963 60.2286 0002333 85.0943 275.0519 14.34217244412174 IRIDIUM 180 1 43922U 19002A 26159.48466311 .00000060 00000+0 14295-4 0 9998 2 43922 86.3973 357.2367 0002250 89.1234 271.0219 14.34218140387746 IRIDIUM 176 1 43923U 19002B 26159.79895760 .00000818 00000+0 12577-3 0 9998 2 43923 86.6094 357.0497 0002205 90.9364 269.2106 14.72256344398016 IRIDIUM 168 1 43924U 19002C 26159.82716395 .00000042 00000+0 77710-5 0 9990 2 43924 86.3977 357.1705 0002187 89.0313 271.1133 14.34217751387779 IRIDIUM 173 1 43925U 19002D 26159.81447741 .00000082 00000+0 22221-4 0 9996 2 43925 86.3973 357.0649 0002264 86.4449 273.7006 14.34217427387754 IRIDIUM 169 1 43926U 19002E 26159.14043362 .00000278 00000+0 84334-4 0 9994 2 43926 86.4235 28.9760 0002157 70.6451 289.4981 14.38610471388920 IRIDIUM 172 1 43927U 19002F 26159.80813463 .00000104 00000+0 29898-4 0 9997 2 43927 86.3973 357.0756 0002263 89.1181 271.0274 14.34218543387766 IRIDIUM 175 1 43928U 19002G 26159.75009980 .00000356 00000+0 99287-4 0 9991 2 43928 86.4507 294.0484 0001409 213.9323 146.1788 14.43608311397764 IRIDIUM 171 1 43929U 19002H 26159.78910742 .00000057 00000+0 13157-4 0 9992 2 43929 86.3982 357.3885 0002020 87.7195 272.4232 14.34217990387757 IRIDIUM 170 1 43930U 19002J 26159.80514102 .00000826 00000+0 12713-3 0 9997 2 43930 86.6093 357.0497 0002335 87.3681 272.7804 14.72256805398026 IRIDIUM 167 1 43931U 19002K 26159.78276500 .00000022 00000+0 73624-6 0 9991 2 43931 86.3973 357.1082 0001860 86.1672 273.9737 14.34217588387750 IRIDIUM 181 1 56726U 23068S 26159.78693282 .00000327 00000+0 91281-4 0 9999 2 56726 86.4503 60.3019 0002292 90.6912 269.4551 14.43310337161228 IRIDIUM 177 1 56727U 23068T 26159.73714244 .00001175 00000+0 15112-3 0 9997 2 56727 86.1961 332.8059 0002440 85.7005 274.4494 14.80225535165118 IRIDIUM 174 1 56728U 23068U 26159.79278293 .00000800 00000+0 12299-3 0 9990 2 56728 86.6101 357.2016 0002565 85.1964 274.9546 14.72252659164783 IRIDIUM 178 1 56729U 23068V 26159.38825909 .00001090 00000+0 14002-3 0 9994 2 56729 86.6546 29.0376 0002675 89.1306 271.0222 14.80218970165064 IRIDIUM 179 1 56730U 23068W 26159.72091032 .00001036 00000+0 13293-3 0 9997 2 56730 86.6787 37.8530 0002399 87.2179 272.9317 14.80236665165114